sat.trackr.live / text

‹ back to catalog

ONEWEB-0063

NORAD 45448 · 2020-020AA

PAYLOAD ACTIVE UNKNOWN

§ Identity

Operator
Country
UK
Launch date
2020-03-21
Launch site
TYMSC
Launch vehicle
Mass (kg)
RCS (m²)

Purposes: comms

External: N2YO · Heavens-Above · Gunter

§ Orbital elements

Epoch: 2026-05-25T03:10:33.748320Z

Period
109.81 min
Inclination
87.8917°
Eccentricity
0.0001945
Mean motion
13.11413886 rev/d
Perigee alt
1,216.2 km
Apogee alt
1,219.2 km
Semi-major
7,595.8 km
B*
4.4272e-4
RAAN
25.6536°
Arg perigee
90.6683°
Mean anomaly
269.4667°
Rev number
29,967

§ Raw data

ONEWEB-00631 45448U 20020AA  26145.13233505  .00000170  00000+0  44272-3 0  99982 45448  87.8917  25.6536 0001945  90.6683 269.4667 13.11413886299674

JSON: /api/v1/satellites/45448 · /tle

For live sub-satellite position, see the globe view (requires WebGL).

§ Visibility from observer

Set your observer location to see the next 7 days of passes ≥ 10°. The values pass through the URL so the page stays shareable.

No JS? Fill the form by hand. The geolocation button needs JavaScript.